Home   Weather   Midland   Past weeks

Flag for USA Past Weather in Midland, Texas, USA — Yesterday and Last 2 Weeks

Now
66 °F

Sunny.


Feels Like: 66 °F
Forecast: 46 / 64 °F
Wind: 24 mph from West

Location: Midland - Midland Airpark

Current Time: Jan 20, 2017 at 2:28:35 pm

Latest Report: Jan 20, 2017 at 1:55 pm


Visibility: 10 mi

Pressure: 29.70 "Hg (26.90 "Hg at 847m altitude)

Humidity: 23%

Dew Point: 28 °F

Location of MidlandLocation

Past Weather in Midland — Graph

°F

Midland Temperature Yesterday

Maximum temperature yesterday: 68 °F (at 2:15 pm)
Minimum temperature yesterday: 45 °F (at 5:15 am)
Average temperature yesterday: 56 °F

High & Low Weather Summary for the Past Weeks

 TemperatureHumidityPressure
High82 °F (Jan 11, 3:35 pm)100% (Jan 14, 3:35 am)30.66 "Hg (Jan 14, 3:35 am)
Low15 °F (Jan 7, 7:35 am)10% (Jan 11, 3:35 pm)29.69 "Hg (Jan 19, 2:15 pm)
Average46 °F61%30.11 "Hg
* Reported Jan 5 12:15 pm — Jan 20 12:55 pm, Midland, Weather by CustomWeather, © 2017

Note: Actual official high and low records may vary slightly from our data, if they occured in-between our weather recording intervals... More about our weather records

Advertising

Midland Weather History for the Previous 24 Hours

Scroll right to see more
 ConditionsComfort  
Time TempWeatherWind HumidityBarometerVisibility
12:55 pm
Fri, Jan 20
65 °FSunny.26 mph24%29.73 "Hg10 mi
12:15 pm64 °FSunny.22 mph27%29.75 "Hg10 mi
11:55 am63 °FSunny.23 mph28%29.77 "Hg10 mi
11:15 am62 °FSunny.20 mph29%29.78 "Hg10 mi
10:55 am61 °FSunny.23 mph29%29.78 "Hg10 mi
10:35 am61 °FSunny.18 mph30%29.78 "Hg10 mi
9:55 am56 °FSunny.13 mph38%29.77 "Hg10 mi
9:15 am56 °FSunny.17 mph36%29.76 "Hg10 mi
8:55 am53 °FSunny.16 mph41%29.76 "Hg10 mi
8:15 am49 °FSunny.12 mph49%29.75 "Hg10 mi
7:35 am49 °FClear.9 mph51%29.76 "Hg10 mi
6:55 am49 °FClear.14 mph50%29.75 "Hg10 mi
6:35 am49 °FClear.13 mph51%29.75 "Hg10 mi
5:55 am49 °FClear.8 mph53%29.74 "Hg10 mi
5:15 am50 °FClear.12 mph51%29.74 "Hg10 mi
4:55 am50 °FClear.12 mph52%29.75 "Hg10 mi
4:35 am50 °FClear.10 mph50%29.74 "Hg10 mi
3:55 am52 °FClear.15 mph47%29.74 "Hg10 mi
3:15 am53 °FClear.17 mph46%29.74 "Hg10 mi
2:55 am52 °FClear.15 mph47%29.75 "Hg10 mi
2:15 am51 °FClear.13 mph48%29.73 "Hg10 mi
1:55 am51 °FClear.15 mph48%29.73 "Hg10 mi
1:15 am52 °FClear.16 mph46%29.74 "Hg10 mi
12:55 am53 °FClear.13 mph44%29.74 "Hg10 mi
12:15 am53 °FClear.14 mph42%29.75 "Hg10 mi
11:55 pm
Thu, Jan 19
53 °FClear.15 mph41%29.75 "Hg10 mi
11:15 pm54 °FClear.14 mph38%29.75 "Hg10 mi
10:55 pm55 °FClear.14 mph39%29.74 "Hg10 mi
10:15 pm55 °FClear.14 mph38%29.73 "Hg10 mi
9:55 pm55 °FClear.15 mph38%29.73 "Hg10 mi
9:35 pm56 °FClear.18 mph37%29.73 "Hg10 mi
8:55 pm56 °FClear.20 mph37%29.72 "Hg10 mi
8:15 pm56 °FClear.20 mph39%29.71 "Hg10 mi
7:55 pm57 °FClear.17 mph39%29.71 "Hg10 mi
7:15 pm58 °FClear.16 mph35%29.72 "Hg10 mi
6:55 pm59 °FClear.13 mph34%29.71 "Hg10 mi
6:15 pm61 °FClear.13 mph31%29.71 "Hg10 mi
5:35 pm63 °FSunny.16 mph27%29.70 "Hg10 mi
4:55 pm66 °FSunny.18 mph25%29.70 "Hg10 mi
4:15 pm67 °FSunny.22 mph23%29.69 "Hg10 mi
3:55 pm67 °FSunny.24 mph24%29.69 "Hg10 mi
3:15 pm67 °FSunny.28 mph25%29.69 "Hg10 mi
2:55 pm67 °FSunny.23 mph25%29.69 "Hg10 mi
2:15 pm68 °FSunny.22 mph25%29.69 "Hg10 mi
Weather by CustomWeather, © 2017

See weather overviewHow to use our weather pages